Year,Month,Day,Hour,Minute,Value (Times are PST for temperature in C)
2006,07,20,00,00,13.90
2006,07,20,00,01,13.90
2006,07,20,00,02,13.90
2006,07,20,00,03,13.90
2006,07,20,00,04,13.80
2006,07,20,00,05,13.80
2006,07,20,00,06,13.80
2006,07,20,00,07,13.80
2006,07,20,00,08,13.70
2006,07,20,00,09,13.70
2006,07,20,00,10,13.70
2006,07,20,00,11,13.70
2006,07,20,00,12,13.70
2006,07,20,00,13,13.70
2006,07,20,00,14,13.70
2006,07,20,00,15,13.70
2006,07,20,00,16,13.70
2006,07,20,00,17,13.70
2006,07,20,00,18,13.70
2006,07,20,00,19,13.70
2006,07,20,00,20,13.70
2006,07,20,00,21,13.70
2006,07,20,00,22,13.70
2006,07,20,00,23,13.70
2006,07,20,00,24,13.70
2006,07,20,00,25,13.70
2006,07,20,00,26,13.70
2006,07,20,00,27,13.60
2006,07,20,00,28,13.60
2006,07,20,00,29,13.60
2006,07,20,00,30,13.60
2006,07,20,00,31,13.60
2006,07,20,00,32,13.60
2006,07,20,00,33,13.60
2006,07,20,00,34,13.60
2006,07,20,00,35,13.60
2006,07,20,00,36,13.60
2006,07,20,00,37,13.60
2006,07,20,00,38,13.60
2006,07,20,00,39,13.50
2006,07,20,00,40,13.50
2006,07,20,00,41,13.50
2006,07,20,00,42,13.50
2006,07,20,00,43,13.50
2006,07,20,00,44,13.50
2006,07,20,00,45,13.50
2006,07,20,00,46,13.50
2006,07,20,00,47,13.50
2006,07,20,00,48,13.40
2006,07,20,00,49,13.40
2006,07,20,00,50,13.40
2006,07,20,00,51,13.40
2006,07,20,00,52,13.30
2006,07,20,00,53,13.30
2006,07,20,00,54,13.30
2006,07,20,00,55,13.30
2006,07,20,00,56,13.30
2006,07,20,00,57,13.30
2006,07,20,00,58,13.30
2006,07,20,00,59,13.20
2006,07,20,01,00,13.20
2006,07,20,01,01,13.20
2006,07,20,01,02,13.20
2006,07,20,01,03,13.20
2006,07,20,01,04,13.20
2006,07,20,01,05,13.10
2006,07,20,01,06,13.10
2006,07,20,01,07,13.10
2006,07,20,01,08,13.10
2006,07,20,01,09,13.10
2006,07,20,01,10,13.10
2006,07,20,01,11,13.10
2006,07,20,01,12,13.10
2006,07,20,01,13,13.20
2006,07,20,01,14,13.20
2006,07,20,01,15,13.20
2006,07,20,01,16,13.20
2006,07,20,01,17,13.20
2006,07,20,01,18,13.20
2006,07,20,01,19,13.20
2006,07,20,01,20,13.10
2006,07,20,01,21,13.10
2006,07,20,01,22,13.10
2006,07,20,01,23,13.10
2006,07,20,01,24,13.10
2006,07,20,01,25,13.10
2006,07,20,01,26,13.10
2006,07,20,01,27,13.10
2006,07,20,01,28,13.10
2006,07,20,01,29,13.10
2006,07,20,01,30,13.10
2006,07,20,01,31,13.10
2006,07,20,01,32,13.10
2006,07,20,01,33,13.10
2006,07,20,01,34,13.10
2006,07,20,01,35,13.10
2006,07,20,01,36,13.10
2006,07,20,01,37,13.10
2006,07,20,01,38,13.10
2006,07,20,01,39,13.10
2006,07,20,01,40,13.10
2006,07,20,01,41,13.10
2006,07,20,01,42,13.10
2006,07,20,01,43,13.10
2006,07,20,01,44,13.10
2006,07,20,01,45,13.10
2006,07,20,01,46,13.10
2006,07,20,01,47,13.10
2006,07,20,01,48,13.20
2006,07,20,01,49,13.20
2006,07,20,01,50,13.20
2006,07,20,01,51,13.20
2006,07,20,01,52,13.20
2006,07,20,01,53,13.10
2006,07,20,01,54,13.10
2006,07,20,01,55,13.10
2006,07,20,01,56,13.10
2006,07,20,01,57,13.10
2006,07,20,01,58,13.00
2006,07,20,01,59,13.00
2006,07,20,02,00,13.00
2006,07,20,02,01,13.00
2006,07,20,02,02,13.00
2006,07,20,02,03,13.00
2006,07,20,02,04,13.10
2006,07,20,02,05,13.10
2006,07,20,02,06,13.10
2006,07,20,02,07,13.20
2006,07,20,02,08,13.20
2006,07,20,02,09,13.30
2006,07,20,02,10,13.30
2006,07,20,02,11,13.30
2006,07,20,02,12,13.30
2006,07,20,02,13,13.40
2006,07,20,02,14,13.40
2006,07,20,02,15,13.40
2006,07,20,02,16,13.50
2006,07,20,02,17,13.50
2006,07,20,02,18,13.50
2006,07,20,02,19,13.60
2006,07,20,02,20,13.60
2006,07,20,02,21,13.70
2006,07,20,02,22,13.70
2006,07,20,02,23,13.70
2006,07,20,02,24,13.70
2006,07,20,02,25,13.70
2006,07,20,02,26,13.70
2006,07,20,02,27,13.70
2006,07,20,02,28,13.70
2006,07,20,02,29,13.70
2006,07,20,02,30,13.70
2006,07,20,02,31,13.70
2006,07,20,02,32,13.70
2006,07,20,02,33,13.70
2006,07,20,02,34,13.70
2006,07,20,02,35,13.70
2006,07,20,02,36,13.70
2006,07,20,02,37,13.70
2006,07,20,02,38,13.70
2006,07,20,02,39,13.70
2006,07,20,02,40,13.70
2006,07,20,02,41,13.70
2006,07,20,02,42,13.70
2006,07,20,02,43,13.70
2006,07,20,02,44,13.70
2006,07,20,02,45,13.70
2006,07,20,02,46,13.70
2006,07,20,02,47,13.70
2006,07,20,02,48,13.70
2006,07,20,02,49,13.70
2006,07,20,02,50,13.70
2006,07,20,02,51,13.70
2006,07,20,02,52,13.70
2006,07,20,02,53,13.70
2006,07,20,02,54,13.70
2006,07,20,02,55,13.60
2006,07,20,02,56,13.60
2006,07,20,02,57,13.50
2006,07,20,02,58,13.50
2006,07,20,02,59,13.50
2006,07,20,03,00,13.40
2006,07,20,03,01,13.40
2006,07,20,03,02,13.30
2006,07,20,03,03,13.30
2006,07,20,03,04,13.20
2006,07,20,03,05,13.10
2006,07,20,03,06,13.10
2006,07,20,03,07,13.00
2006,07,20,03,08,13.00
2006,07,20,03,09,12.90
2006,07,20,03,10,12.80
2006,07,20,03,11,12.80
2006,07,20,03,12,12.80
2006,07,20,03,13,12.80
2006,07,20,03,14,12.70
2006,07,20,03,15,12.70
2006,07,20,03,16,12.70
2006,07,20,03,17,12.70
2006,07,20,03,18,12.70
2006,07,20,03,19,12.80
2006,07,20,03,20,12.80
2006,07,20,03,21,12.80
2006,07,20,03,22,12.80
2006,07,20,03,23,12.80
2006,07,20,03,24,12.80
2006,07,20,03,25,12.80
2006,07,20,03,26,12.80
2006,07,20,03,27,12.80
2006,07,20,03,28,12.80
2006,07,20,03,29,12.80
2006,07,20,03,30,12.80
2006,07,20,03,31,12.80
2006,07,20,03,32,12.80
2006,07,20,03,33,12.80
2006,07,20,03,34,12.70
2006,07,20,03,35,12.70
2006,07,20,03,36,12.70
2006,07,20,03,37,12.70
2006,07,20,03,38,12.60
2006,07,20,03,39,12.60
2006,07,20,03,40,12.60
2006,07,20,03,41,12.60
2006,07,20,03,42,12.50
2006,07,20,03,43,12.50
2006,07,20,03,44,12.50
2006,07,20,03,45,12.50
2006,07,20,03,46,12.50
2006,07,20,03,47,12.50
2006,07,20,03,48,12.50
2006,07,20,03,49,12.50
2006,07,20,03,50,12.50
2006,07,20,03,51,12.50
2006,07,20,03,52,12.60
2006,07,20,03,53,12.60
2006,07,20,03,54,12.60
2006,07,20,03,55,12.60
2006,07,20,03,56,12.60
2006,07,20,03,57,12.60
2006,07,20,03,58,12.60
2006,07,20,03,59,12.60
2006,07,20,04,00,12.60
2006,07,20,04,01,12.60
2006,07,20,04,02,12.60
2006,07,20,04,03,12.60
2006,07,20,04,04,12.60
2006,07,20,04,05,12.60
2006,07,20,04,06,12.50
2006,07,20,04,07,12.50
2006,07,20,04,08,12.50
2006,07,20,04,09,12.50
2006,07,20,04,10,12.40
2006,07,20,04,11,12.40
2006,07,20,04,12,12.40
2006,07,20,04,13,12.30
2006,07,20,04,14,12.30
2006,07,20,04,15,12.30
2006,07,20,04,16,12.30
2006,07,20,04,17,12.30
2006,07,20,04,18,12.20
2006,07,20,04,19,12.20
2006,07,20,04,20,12.10
2006,07,20,04,21,12.10
2006,07,20,04,22,12.10
2006,07,20,04,23,12.00
2006,07,20,04,24,12.00
2006,07,20,04,25,12.00
2006,07,20,04,26,11.90
2006,07,20,04,27,11.90
2006,07,20,04,28,11.90
2006,07,20,04,29,11.80
2006,07,20,04,30,11.80
2006,07,20,04,31,11.80
2006,07,20,04,32,11.80
2006,07,20,04,33,11.80
2006,07,20,04,34,11.80
2006,07,20,04,35,11.80
2006,07,20,04,36,11.80
2006,07,20,04,37,11.80
2006,07,20,04,38,11.70
2006,07,20,04,39,11.70
2006,07,20,04,40,11.70
2006,07,20,04,41,11.70
2006,07,20,04,42,11.60
2006,07,20,04,43,11.60
2006,07,20,04,44,11.70
2006,07,20,04,45,11.70
2006,07,20,04,46,11.70
2006,07,20,04,47,11.70
2006,07,20,04,48,11.70
2006,07,20,04,49,11.80
2006,07,20,04,50,11.80
2006,07,20,04,51,11.80
2006,07,20,04,52,11.80
2006,07,20,04,53,11.80
2006,07,20,04,54,11.80
2006,07,20,04,55,11.80
2006,07,20,04,56,11.80
2006,07,20,04,57,11.80
2006,07,20,04,58,11.80
2006,07,20,04,59,11.80
2006,07,20,05,00,11.80
2006,07,20,05,01,11.80
2006,07,20,05,02,11.80
2006,07,20,05,03,11.80
2006,07,20,05,04,11.80
2006,07,20,05,05,11.80
2006,07,20,05,06,11.70
2006,07,20,05,07,11.70
2006,07,20,05,08,11.70
2006,07,20,05,09,11.70
2006,07,20,05,10,11.70
2006,07,20,05,11,11.70
2006,07,20,05,12,11.60
2006,07,20,05,13,11.60
2006,07,20,05,14,11.60
2006,07,20,05,15,11.60
2006,07,20,05,16,11.60
2006,07,20,05,17,11.60
2006,07,20,05,18,11.60
2006,07,20,05,19,11.60
2006,07,20,05,20,11.60
2006,07,20,05,21,11.60
2006,07,20,05,22,11.60
2006,07,20,05,23,11.60
2006,07,20,05,24,11.60
2006,07,20,05,25,11.60
2006,07,20,05,26,11.60
2006,07,20,05,27,11.60
2006,07,20,05,28,11.60
2006,07,20,05,29,11.60
2006,07,20,05,30,11.60
2006,07,20,05,31,11.60
2006,07,20,05,32,11.60
2006,07,20,05,33,11.60
2006,07,20,05,34,11.60
2006,07,20,05,35,11.60
2006,07,20,05,36,11.60
2006,07,20,05,37,11.60
2006,07,20,05,38,11.60
2006,07,20,05,39,11.60
2006,07,20,05,40,11.60
2006,07,20,05,41,11.60
2006,07,20,05,42,11.60
2006,07,20,05,43,11.60
2006,07,20,05,44,11.60
2006,07,20,05,45,11.60
2006,07,20,05,46,11.60
2006,07,20,05,47,11.60
2006,07,20,05,48,11.60
2006,07,20,05,49,11.60
2006,07,20,05,50,11.60
2006,07,20,05,51,11.60
2006,07,20,05,52,11.60
2006,07,20,05,53,11.60
2006,07,20,05,54,11.70
2006,07,20,05,55,11.70
2006,07,20,05,56,11.70
2006,07,20,05,57,11.60
2006,07,20,05,58,11.60
2006,07,20,05,59,11.60
2006,07,20,06,00,11.60
2006,07,20,06,01,11.60
2006,07,20,06,02,11.60
2006,07,20,06,03,11.70
2006,07,20,06,04,11.70
2006,07,20,06,05,11.70
2006,07,20,06,06,11.70
2006,07,20,06,07,11.80
2006,07,20,06,08,11.80
2006,07,20,06,09,11.80
2006,07,20,06,10,11.80
2006,07,20,06,11,11.90
2006,07,20,06,12,11.90
2006,07,20,06,13,11.90
2006,07,20,06,14,12.00
2006,07,20,06,15,12.10
2006,07,20,06,16,12.10
2006,07,20,06,17,12.20
2006,07,20,06,18,12.20
2006,07,20,06,19,12.30
2006,07,20,06,20,12.30
2006,07,20,06,21,12.50
2006,07,20,06,22,12.60
2006,07,20,06,23,12.60
2006,07,20,06,24,12.70
2006,07,20,06,25,12.80
2006,07,20,06,26,12.80
2006,07,20,06,27,12.90
2006,07,20,06,28,13.00
2006,07,20,06,29,13.00
2006,07,20,06,30,13.10
2006,07,20,06,31,13.20
2006,07,20,06,32,13.20
2006,07,20,06,33,13.30
2006,07,20,06,34,13.30
2006,07,20,06,35,13.30
2006,07,20,06,36,13.40
2006,07,20,06,37,13.50
2006,07,20,06,38,13.60
2006,07,20,06,39,13.70
2006,07,20,06,40,13.70
2006,07,20,06,41,13.90
2006,07,20,06,42,13.90
2006,07,20,06,43,14.00
2006,07,20,06,44,14.10
2006,07,20,06,45,14.20
2006,07,20,06,46,14.20
2006,07,20,06,47,14.20
2006,07,20,06,48,14.30
2006,07,20,06,49,14.30
2006,07,20,06,50,14.40
2006,07,20,06,51,14.40
2006,07,20,06,52,14.50
2006,07,20,06,53,14.50
2006,07,20,06,54,14.60
2006,07,20,06,55,14.70
2006,07,20,06,56,14.70
2006,07,20,06,57,14.80
2006,07,20,06,58,14.80
2006,07,20,06,59,14.90
2006,07,20,07,00,15.00
2006,07,20,07,01,15.00
2006,07,20,07,02,15.10
2006,07,20,07,03,15.20
2006,07,20,07,04,15.30
2006,07,20,07,05,15.40
2006,07,20,07,06,15.50
2006,07,20,07,07,15.60
2006,07,20,07,08,15.70
2006,07,20,07,09,15.80
2006,07,20,07,10,15.80
2006,07,20,07,11,15.90
2006,07,20,07,12,16.00
2006,07,20,07,13,16.10
2006,07,20,07,14,16.10
2006,07,20,07,15,16.20
2006,07,20,07,16,16.30
2006,07,20,07,17,16.40
2006,07,20,07,18,16.40
2006,07,20,07,19,16.50
2006,07,20,07,20,16.70
2006,07,20,07,21,16.80
2006,07,20,07,22,16.90
2006,07,20,07,23,17.00
2006,07,20,07,24,17.00
2006,07,20,07,25,17.10
2006,07,20,07,26,17.20
2006,07,20,07,27,17.30
2006,07,20,07,28,17.30
2006,07,20,07,29,17.30
2006,07,20,07,30,17.40
2006,07,20,07,31,17.50
2006,07,20,07,32,17.60
2006,07,20,07,33,17.60
2006,07,20,07,34,17.70
2006,07,20,07,35,17.70
2006,07,20,07,36,17.80
2006,07,20,07,37,17.80
2006,07,20,07,38,17.80
2006,07,20,07,39,17.80
2006,07,20,07,40,17.80
2006,07,20,07,41,17.80
2006,07,20,07,42,17.70
2006,07,20,07,43,17.80
2006,07,20,07,44,17.80
2006,07,20,07,45,17.80
2006,07,20,07,46,17.80
2006,07,20,07,47,17.90
2006,07,20,07,48,17.90
2006,07,20,07,49,17.90
2006,07,20,07,50,17.90
2006,07,20,07,51,17.90
2006,07,20,07,52,17.90
2006,07,20,07,53,18.00
2006,07,20,07,54,18.10
2006,07,20,07,55,18.20
2006,07,20,07,56,18.20
2006,07,20,07,57,18.20
2006,07,20,07,58,18.30
2006,07,20,07,59,18.40
2006,07,20,08,00,18.50
2006,07,20,08,01,18.50
2006,07,20,08,02,18.60
2006,07,20,08,03,18.60
2006,07,20,08,04,18.60
2006,07,20,08,05,18.70
2006,07,20,08,06,18.70
2006,07,20,08,07,18.80
2006,07,20,08,08,18.80
2006,07,20,08,09,18.80
2006,07,20,08,10,18.80
2006,07,20,08,11,18.80
2006,07,20,08,12,18.80
2006,07,20,08,13,18.90
2006,07,20,08,14,18.90
2006,07,20,08,15,18.90
2006,07,20,08,16,19.00
2006,07,20,08,17,19.10
2006,07,20,08,18,19.10
2006,07,20,08,19,19.20
2006,07,20,08,20,19.20
2006,07,20,08,21,19.30
2006,07,20,08,22,19.40
2006,07,20,08,23,19.50
2006,07,20,08,24,19.60
2006,07,20,08,25,19.80
2006,07,20,08,26,19.90
2006,07,20,08,27,19.90
2006,07,20,08,28,20.00
2006,07,20,08,29,20.10
2006,07,20,08,30,20.20
2006,07,20,08,31,20.30
2006,07,20,08,32,20.40
2006,07,20,08,33,20.40
2006,07,20,08,34,20.40
2006,07,20,08,35,20.40
2006,07,20,08,36,20.40
2006,07,20,08,37,20.50
2006,07,20,08,38,20.50
2006,07,20,08,39,20.60
2006,07,20,08,40,20.70
2006,07,20,08,41,20.70
2006,07,20,08,42,20.70
2006,07,20,08,43,20.80
2006,07,20,08,44,20.80
2006,07,20,08,45,20.90
2006,07,20,08,46,21.00
2006,07,20,08,47,21.10
2006,07,20,08,48,21.20
2006,07,20,08,49,21.30
2006,07,20,08,50,21.30
2006,07,20,08,51,21.30
2006,07,20,08,52,21.40
2006,07,20,08,53,21.40
2006,07,20,08,54,21.40
2006,07,20,08,55,21.50
2006,07,20,08,56,21.60
2006,07,20,08,57,21.60
2006,07,20,08,58,21.60
2006,07,20,08,59,21.60
2006,07,20,09,00,21.70
2006,07,20,09,01,21.70
2006,07,20,09,02,21.80
2006,07,20,09,03,21.80
2006,07,20,09,04,21.90
2006,07,20,09,05,21.90
2006,07,20,09,06,22.00
2006,07,20,09,07,22.00
2006,07,20,09,08,22.00
2006,07,20,09,09,22.10
2006,07,20,09,10,22.20
2006,07,20,09,11,22.30
2006,07,20,09,12,22.30
2006,07,20,09,13,22.40
2006,07,20,09,14,22.40
2006,07,20,09,15,22.50
2006,07,20,09,16,22.60
2006,07,20,09,17,22.60
2006,07,20,09,18,22.70
2006,07,20,09,19,22.70
2006,07,20,09,20,22.80
2006,07,20,09,21,22.70
2006,07,20,09,22,22.60
2006,07,20,09,23,22.40
2006,07,20,09,24,22.30
2006,07,20,09,25,22.30
2006,07,20,09,26,22.20
2006,07,20,09,27,22.20
2006,07,20,09,28,22.20
2006,07,20,09,29,22.30
2006,07,20,09,30,22.40
2006,07,20,09,31,22.60
2006,07,20,09,32,22.70
2006,07,20,09,33,22.70
2006,07,20,09,34,22.90
2006,07,20,09,35,23.00
2006,07,20,09,36,23.10
2006,07,20,09,37,23.20
2006,07,20,09,38,23.30
2006,07,20,09,39,23.30
2006,07,20,09,40,23.30
2006,07,20,09,41,23.30
2006,07,20,09,42,23.40
2006,07,20,09,43,23.50
2006,07,20,09,44,23.60
2006,07,20,09,45,23.70
2006,07,20,09,46,23.80
2006,07,20,09,47,23.90
2006,07,20,09,48,23.80
2006,07,20,09,49,23.80
2006,07,20,09,50,23.70
2006,07,20,09,51,23.60
2006,07,20,09,52,23.60
2006,07,20,09,53,23.70
2006,07,20,09,54,23.70
2006,07,20,09,55,23.70
2006,07,20,09,56,23.80
2006,07,20,09,57,23.80
2006,07,20,09,58,23.70
2006,07,20,09,59,23.70
2006,07,20,10,00,23.70
2006,07,20,10,01,23.70
2006,07,20,10,02,23.70
2006,07,20,10,03,23.80
2006,07,20,10,04,23.90
2006,07,20,10,05,24.00
2006,07,20,10,06,24.10
2006,07,20,10,07,24.10
2006,07,20,10,08,24.20
2006,07,20,10,09,24.10
2006,07,20,10,10,24.00
2006,07,20,10,11,23.90
2006,07,20,10,12,23.90
2006,07,20,10,13,23.90
2006,07,20,10,14,23.90
2006,07,20,10,15,23.90
2006,07,20,10,16,23.90
2006,07,20,10,17,23.90
2006,07,20,10,18,23.90
2006,07,20,10,19,23.80
2006,07,20,10,20,23.80
2006,07,20,10,21,23.80
2006,07,20,10,22,23.70
2006,07,20,10,23,23.90
2006,07,20,10,24,24.00
2006,07,20,10,25,24.10
2006,07,20,10,26,24.10
2006,07,20,10,27,24.10
2006,07,20,10,28,24.30
2006,07,20,10,29,24.30
2006,07,20,10,30,24.20
2006,07,20,10,31,24.20
2006,07,20,10,32,24.20
2006,07,20,10,33,24.20
2006,07,20,10,34,24.10
2006,07,20,10,35,24.10
2006,07,20,10,36,23.90
2006,07,20,10,37,23.90
2006,07,20,10,38,24.00
2006,07,20,10,39,24.00
2006,07,20,10,40,23.90
2006,07,20,10,41,24.00
2006,07,20,10,42,24.10
2006,07,20,10,43,24.10
2006,07,20,10,44,24.30
2006,07,20,10,45,24.40
2006,07,20,10,46,24.40
2006,07,20,10,47,24.40
2006,07,20,10,48,24.50
2006,07,20,10,49,24.60
2006,07,20,10,50,24.70
2006,07,20,10,51,24.60
2006,07,20,10,52,24.50
2006,07,20,10,53,24.40
2006,07,20,10,54,24.50
2006,07,20,10,55,24.50
2006,07,20,10,56,24.50
2006,07,20,10,57,24.60
2006,07,20,10,58,24.70
2006,07,20,10,59,24.50
2006,07,20,11,00,24.50
2006,07,20,11,01,24.40
2006,07,20,11,02,24.20
2006,07,20,11,03,24.20
2006,07,20,11,04,24.30
2006,07,20,11,05,24.30
2006,07,20,11,06,24.40
2006,07,20,11,07,24.50
2006,07,20,11,08,24.70
2006,07,20,11,09,24.80
2006,07,20,11,10,24.90
2006,07,20,11,11,24.90
2006,07,20,11,12,25.00
2006,07,20,11,13,25.00
2006,07,20,11,14,25.00
2006,07,20,11,15,24.90
2006,07,20,11,16,24.80
2006,07,20,11,17,24.80
2006,07,20,11,18,24.80
2006,07,20,11,19,24.80
2006,07,20,11,20,24.90
2006,07,20,11,21,24.90
2006,07,20,11,22,24.80
2006,07,20,11,23,24.80
2006,07,20,11,24,24.90
2006,07,20,11,25,24.80
2006,07,20,11,26,24.70
2006,07,20,11,27,24.80
2006,07,20,11,28,24.80
2006,07,20,11,29,24.90
2006,07,20,11,30,24.80
2006,07,20,11,31,24.70
2006,07,20,11,32,24.70
2006,07,20,11,33,24.70
2006,07,20,11,34,24.70
2006,07,20,11,35,24.90
2006,07,20,11,36,24.90
2006,07,20,11,37,24.90
2006,07,20,11,38,24.90
2006,07,20,11,39,25.00
2006,07,20,11,40,25.00
2006,07,20,11,41,25.00
2006,07,20,11,42,25.00
2006,07,20,11,43,25.00
2006,07,20,11,44,25.00
2006,07,20,11,45,25.00
2006,07,20,11,46,25.00
2006,07,20,11,47,25.00
2006,07,20,11,48,25.10
2006,07,20,11,49,25.20
2006,07,20,11,50,25.20
2006,07,20,11,51,25.30
2006,07,20,11,52,25.30
2006,07,20,11,53,25.30
2006,07,20,11,54,25.40
2006,07,20,11,55,25.40
2006,07,20,11,56,25.40
2006,07,20,11,57,25.30
2006,07,20,11,58,25.30
2006,07,20,11,59,25.20
2006,07,20,12,00,25.00
2006,07,20,12,01,24.90
2006,07,20,12,02,24.90
2006,07,20,12,03,24.90
2006,07,20,12,04,24.90
2006,07,20,12,05,24.80
2006,07,20,12,06,24.70
2006,07,20,12,07,24.60
2006,07,20,12,08,24.80
2006,07,20,12,09,24.80
2006,07,20,12,10,24.90
2006,07,20,12,11,24.90
2006,07,20,12,12,24.80
2006,07,20,12,13,25.00
2006,07,20,12,14,25.20
2006,07,20,12,15,25.40
2006,07,20,12,16,25.50
2006,07,20,12,17,25.60
2006,07,20,12,18,25.60
2006,07,20,12,19,25.60
2006,07,20,12,20,25.60
2006,07,20,12,21,25.50
2006,07,20,12,22,25.50
2006,07,20,12,23,25.40
2006,07,20,12,24,25.40
2006,07,20,12,25,25.50
2006,07,20,12,26,25.60
2006,07,20,12,27,25.60
2006,07,20,12,28,25.70
2006,07,20,12,29,25.80
2006,07,20,12,30,25.90
2006,07,20,12,31,26.10
2006,07,20,12,32,26.30
2006,07,20,12,33,26.20
2006,07,20,12,34,25.90
2006,07,20,12,35,25.70
2006,07,20,12,36,25.30
2006,07,20,12,37,25.00
2006,07,20,12,38,24.70
2006,07,20,12,39,24.40
2006,07,20,12,40,24.20
2006,07,20,12,41,24.10
2006,07,20,12,42,24.10
2006,07,20,12,43,24.10
2006,07,20,12,44,24.10
2006,07,20,12,45,24.10
2006,07,20,12,46,24.30
2006,07,20,12,47,24.40
2006,07,20,12,48,24.50
2006,07,20,12,49,24.70
2006,07,20,12,50,24.90
2006,07,20,12,51,25.00
2006,07,20,12,52,25.20
2006,07,20,12,53,25.20
2006,07,20,12,54,25.30
2006,07,20,12,55,25.30
2006,07,20,12,56,25.40
2006,07,20,12,57,25.40
2006,07,20,12,58,25.40
2006,07,20,12,59,25.40
2006,07,20,13,00,25.50
2006,07,20,13,01,25.70
2006,07,20,13,02,25.70
2006,07,20,13,03,25.80
2006,07,20,13,04,25.90
2006,07,20,13,05,26.00
2006,07,20,13,06,26.00
2006,07,20,13,07,26.00
2006,07,20,13,08,25.90
2006,07,20,13,09,25.60
2006,07,20,13,10,25.50
2006,07,20,13,11,25.20
2006,07,20,13,12,25.10
2006,07,20,13,13,25.00
2006,07,20,13,14,25.00
2006,07,20,13,15,25.00
2006,07,20,13,16,25.10
2006,07,20,13,17,25.10
2006,07,20,13,18,25.10
2006,07,20,13,19,25.00
2006,07,20,13,20,24.90
2006,07,20,13,21,24.80
2006,07,20,13,22,24.90
2006,07,20,13,23,24.90
2006,07,20,13,24,24.90
2006,07,20,13,25,24.90
2006,07,20,13,26,25.00
2006,07,20,13,27,25.10
2006,07,20,13,28,25.20
2006,07,20,13,29,25.30
2006,07,20,13,30,25.40
2006,07,20,13,31,25.50
2006,07,20,13,32,25.70
2006,07,20,13,33,25.90
2006,07,20,13,34,26.00
2006,07,20,13,35,26.40
2006,07,20,13,36,26.60
2006,07,20,13,37,26.70
2006,07,20,13,38,26.80
2006,07,20,13,39,26.90
2006,07,20,13,40,27.00
2006,07,20,13,41,27.20
2006,07,20,13,42,27.30
2006,07,20,13,43,27.40
2006,07,20,13,44,27.40
2006,07,20,13,45,27.40
2006,07,20,13,46,27.40
2006,07,20,13,47,27.30
2006,07,20,13,48,27.30
2006,07,20,13,49,27.30
2006,07,20,13,50,27.30
2006,07,20,13,51,27.40
2006,07,20,13,52,27.40
2006,07,20,13,53,27.50
2006,07,20,13,54,27.40
2006,07,20,13,55,27.30
2006,07,20,13,56,27.30
2006,07,20,13,57,27.30
2006,07,20,13,58,27.30
2006,07,20,13,59,27.30
2006,07,20,14,00,27.20
2006,07,20,14,01,27.10
2006,07,20,14,02,27.00
2006,07,20,14,03,27.00
2006,07,20,14,04,27.10
2006,07,20,14,05,27.10
2006,07,20,14,06,27.00
2006,07,20,14,07,26.80
2006,07,20,14,08,26.60
2006,07,20,14,09,26.40
2006,07,20,14,10,26.30
2006,07,20,14,11,26.30
2006,07,20,14,12,26.30
2006,07,20,14,13,26.30
2006,07,20,14,14,26.30
2006,07,20,14,15,26.30
2006,07,20,14,16,26.30
2006,07,20,14,17,26.30
2006,07,20,14,18,26.10
2006,07,20,14,19,26.00
2006,07,20,14,20,25.90
2006,07,20,14,21,25.80
2006,07,20,14,22,25.50
2006,07,20,14,23,25.40
2006,07,20,14,24,25.30
2006,07,20,14,25,25.20
2006,07,20,14,26,25.30
2006,07,20,14,27,25.40
2006,07,20,14,28,25.30
2006,07,20,14,29,25.30
2006,07,20,14,30,25.40
2006,07,20,14,31,25.60
2006,07,20,14,32,25.60
2006,07,20,14,33,25.60
2006,07,20,14,34,25.50
2006,07,20,14,35,25.40
2006,07,20,14,36,25.40
2006,07,20,14,37,25.20
2006,07,20,14,38,25.10
2006,07,20,14,39,25.00
2006,07,20,14,40,25.00
2006,07,20,14,41,25.00
2006,07,20,14,42,25.00
2006,07,20,14,43,25.10
2006,07,20,14,44,25.10
2006,07,20,14,45,25.10
2006,07,20,14,46,25.10
2006,07,20,14,47,24.90
2006,07,20,14,48,24.80
2006,07,20,14,49,24.70
2006,07,20,14,50,24.60
2006,07,20,14,51,24.60
2006,07,20,14,52,24.60
2006,07,20,14,53,24.60
2006,07,20,14,54,24.70
2006,07,20,14,55,24.70
2006,07,20,14,56,24.70
2006,07,20,14,57,24.80
2006,07,20,14,58,24.80
2006,07,20,14,59,24.80
2006,07,20,15,00,24.90
2006,07,20,15,01,25.10
2006,07,20,15,02,25.30
2006,07,20,15,03,25.30
2006,07,20,15,04,25.50
2006,07,20,15,05,25.60
2006,07,20,15,06,25.80
2006,07,20,15,07,25.90
2006,07,20,15,08,26.20
2006,07,20,15,09,26.50
2006,07,20,15,10,26.60
2006,07,20,15,11,26.80
2006,07,20,15,12,26.90
2006,07,20,15,13,27.00
2006,07,20,15,14,27.20
2006,07,20,15,15,27.30
2006,07,20,15,16,27.40
2006,07,20,15,17,27.60
2006,07,20,15,18,27.70
2006,07,20,15,19,27.80
2006,07,20,15,20,27.90
2006,07,20,15,21,27.80
2006,07,20,15,22,27.80
2006,07,20,15,23,27.70
2006,07,20,15,24,27.70
2006,07,20,15,25,27.80
2006,07,20,15,26,27.90
2006,07,20,15,27,28.00
2006,07,20,15,28,28.20
2006,07,20,15,29,28.40
2006,07,20,15,30,28.40
2006,07,20,15,31,28.50
2006,07,20,15,32,28.60
2006,07,20,15,33,28.60
2006,07,20,15,34,28.50
2006,07,20,15,35,28.40
2006,07,20,15,36,28.40
2006,07,20,15,37,28.40
2006,07,20,15,38,28.40
2006,07,20,15,39,28.30
2006,07,20,15,40,28.40
2006,07,20,15,41,28.50
2006,07,20,15,42,28.60
2006,07,20,15,43,28.70
2006,07,20,15,44,28.70
2006,07,20,15,45,28.70
2006,07,20,15,46,28.70
2006,07,20,15,47,28.70
2006,07,20,15,48,28.60
2006,07,20,15,49,28.40
2006,07,20,15,50,28.10
2006,07,20,15,51,27.90
2006,07,20,15,52,27.70
2006,07,20,15,53,27.60
2006,07,20,15,54,27.50
2006,07,20,15,55,27.30
2006,07,20,15,56,27.10
2006,07,20,15,57,27.00
2006,07,20,15,58,26.80
2006,07,20,15,59,26.70
2006,07,20,16,00,26.70
2006,07,20,16,01,26.60
2006,07,20,16,02,26.60
2006,07,20,16,03,26.40
2006,07,20,16,04,26.20
2006,07,20,16,05,26.10
2006,07,20,16,06,26.00
2006,07,20,16,07,26.00
2006,07,20,16,08,26.00
2006,07,20,16,09,26.00
2006,07,20,16,10,25.90
2006,07,20,16,11,25.80
2006,07,20,16,12,25.80
2006,07,20,16,13,25.80
2006,07,20,16,14,25.90
2006,07,20,16,15,25.90
2006,07,20,16,16,26.00
2006,07,20,16,17,26.00
2006,07,20,16,18,26.10
2006,07,20,16,19,26.20
2006,07,20,16,20,26.20
2006,07,20,16,21,26.20
2006,07,20,16,22,26.30
2006,07,20,16,23,26.40
2006,07,20,16,24,26.40
2006,07,20,16,25,26.40
2006,07,20,16,26,26.50
2006,07,20,16,27,26.60
2006,07,20,16,28,26.60
2006,07,20,16,29,26.60
2006,07,20,16,30,26.60
2006,07,20,16,31,26.60
2006,07,20,16,32,26.60
2006,07,20,16,33,26.60
2006,07,20,16,34,26.50
2006,07,20,16,35,26.50
2006,07,20,16,36,26.40
2006,07,20,16,37,26.60
2006,07,20,16,38,26.50
2006,07,20,16,39,26.50
2006,07,20,16,40,26.60
2006,07,20,16,41,26.60
2006,07,20,16,42,26.60
2006,07,20,16,43,26.60
2006,07,20,16,44,26.60
2006,07,20,16,45,26.60
2006,07,20,16,46,26.60
2006,07,20,16,47,26.60
2006,07,20,16,48,26.60
2006,07,20,16,49,26.60
2006,07,20,16,50,26.60
2006,07,20,16,51,26.60
2006,07,20,16,52,26.60
2006,07,20,16,53,26.40
2006,07,20,16,54,26.30
2006,07,20,16,55,26.30
2006,07,20,16,56,26.40
2006,07,20,16,57,26.40
2006,07,20,16,58,26.40
2006,07,20,16,59,26.50
2006,07,20,17,00,26.60
2006,07,20,17,01,26.60
2006,07,20,17,02,26.60
2006,07,20,17,03,26.60
2006,07,20,17,04,26.60
2006,07,20,17,05,26.60
2006,07,20,17,06,26.60
2006,07,20,17,07,26.50
2006,07,20,17,08,26.30
2006,07,20,17,09,26.10
2006,07,20,17,10,26.00
2006,07,20,17,11,26.00
2006,07,20,17,12,26.00
2006,07,20,17,13,26.00
2006,07,20,17,14,26.00
2006,07,20,17,15,26.10
2006,07,20,17,16,26.10
2006,07,20,17,17,26.10
2006,07,20,17,18,26.10
2006,07,20,17,19,26.10